Location: Drocourt
(49.0571°N, 1.7669°E)
Time: 00:24:39
(UTC+00:00)

SR - Pass Details

Date: 20 April 2024
Orbit: 579 x 859 km, 66.7° (Epoch: 25 May)

Event Time Altitude Azimuth Distance (km) Brightness Sun altitude
Rises 10:04:18 0° 323° (NW) 3,005 ? 46.6°
Reaches altitude 10° 10:06:41 10° 323° (NW) 2,047 ? 46.8°
Maximum altitude 10:11:16 81° 237° (WSW) 626 ? 47.3°
Drops below altitude 10° 10:15:33 10° 150° (SSE) 1,917 ? 47.7°
Sets 10:17:43 0° 149° (SSE) 2,797 ? 47.9°
